Weather in Bazlyk

Russia / Republic of Bashkortostan     53°45′03″N   54°16′26″E
temp.,
°C
wind,
m/s
gust,
m/s
humid.,
%
clouds,
%
prec.,
mm/h
press.,
hPa
HPBL,
m
27 february, sat
sat2723:00−19sse61498100 0.0 1018388
02:00−17sse91794100 0.1 1013531
05:00−15sse101895100 1.7 1009551
08:00−14sse91695100 3.4 1005634
11:00−12sse81394100 4.1 1003517
14:00−9sse71194100 0.5 1002467
17:00−6sse61095100 1.0 1001356
20:00−5sse4896100 1.2 999250
28 february, sun
sun2823:00−3sse3698100 2.5 999187
02:00−1ssw4898100 1.7 998367
05:00−2sw3698100 2.4 998212
08:00−3sw229899 0.4 99830
11:00−2nw239694 0.6 999163
14:00−4nnw459689 0.1 1001263
17:00−7nnw579390 0.3 1003324
20:00−11nnw489491 0.1 1005229
1 march, mon
mon123:00−14nnw349586 0.2 100874
02:00−14nnw369592 0.1 1010122
05:00−14nnw369593 0.1 1012152
08:00−16nnw359698 0.2 1014111
11:00−15nnw349492 0.3 1016171
14:00−14nnw349385 0.1 1018268
17:00−14nw459387 0.1 1019260
20:00−20nnw339864 0.0 102126
2 march, tue
tue223:00−22nw229832 0.0 102120
02:00−23wnw221000 0.0 102120
05:00−23wsw231009 0.0 102120
08:00−24ssw3410065 0.0 101942
11:00−20ssw599980 0.0 1017233
14:00−16ssw71197100 0.0 1014335
17:00−14ssw91395100 0.1 1012410
20:00−13ssw81494100 0.6 1009513
3 march, wed
wed323:00−12s81594100 1.0 1007454
02:00−8s71495100 0.8 1004514
05:00−5s61296100 1.5 1002474
08:00−5ssw5996100 0.7 1000317
11:00−5sw469698 0.9 1000259
14:00−4wsw469595 0.1 1000394
17:00−4wsw469498 0.3 1000452
20:00−6sw2397100 0.3 100135